Satellite-Ground Cal/Val Site Overpasses Predictions

Prediction of Satellite NPP Overpassing Cal/Val Site: Antarctic Dome C

Ground Cal/Val Site Location: Latitude: -75.10, Longitude: 123.35; Satellite-Ground Site NADIR distance within 100 km.

Table of predicted overpasses for the next 14.0 days since TLE Epoch: 7/6/2018
Interval Starting Time Ending Time Minimum Distance Time Minimum Distance (km)
1 07/08/2018 07:31:16 07/08/2018 07:31:45 07/08/2018 07:31:30 4.51
2 07/11/2018 14:54:42 07/11/2018 14:55:10 07/11/2018 14:54:56 19.83
3 07/12/2018 14:36:00 07/12/2018 14:36:14 07/12/2018 14:36:07 87.03
4 07/13/2018 07:37:31 07/13/2018 07:37:59 07/13/2018 07:37:45 32.42
5 07/14/2018 07:18:47 07/14/2018 07:19:05 07/14/2018 07:18:56 77.82
6 07/16/2018 15:01:00 07/16/2018 15:01:24 07/16/2018 15:01:12 56.64
7 07/17/2018 14:42:09 07/17/2018 14:42:34 07/17/2018 14:42:22 52.46
8 07/18/2018 07:43:50 07/18/2018 07:44:11 07/18/2018 07:44:00 67.56


NCC Satellite Cal/Val Overpasses Prediction Service
